World > North America > United States > California > Vista   City of Vista, CA

Vista, CA Hourly Weather Updates

Feedback E-mail the Weather

Quick Clicks

Vista, CA Weather Maps

°F °C°F °C
Vista Weather Map
UTC Time: 4/14/2024, 05:10
Your Time:

Vista, CA Regional Weather

Expires:202404140500;;706728
ASUS46 KSGX 140410
RWRSGX

SAN DIEGO HOURLY WEATHER ROUNDUP
NATIONAL WEATHER SERVICE SAN DIEGO CA
900 PM PDT SAT APR 13 2024

NOTE: "FAIR" INDICATES FEW OR NO CLOUDS BELOW 12,000 FEET WITH NO 
SIGNIFICANT WEATHER AND/OR OBSTRUCTIONS TO VISIBILITY.


CAZ042-043-060-061-PZZ750-775-140500-

GREATER SAN DIEGO AREA
  
CITY           SKY/WX    TMP DP  RH WIND       PRES   REMARKS
SAN DIEGO AP   CLOUDY    62  55  77 S8        30.08R                  
BROWN FIELD    PTCLDY    56  51  84 S7        30.07R                  
MIRAMAR MCAS   CLOUDY    55  52  89 SW12      30.06R                  
MONTGOMERY FLD CLOUDY    59  52  77 S10       30.07R                  
GILLESPIE FLD  MOCLDY    59  50  72 S10       30.06                   
LEMON GROVE      N/A     58  52  80 S3        30.05R                  

$$

NORTH SAN DIEGO COUNTY
  
CITY           SKY/WX    TMP DP  RH WIND       PRES   REMARKS
CAMP PENDLETON CLOUDY    54  49  83 NW7G18    30.08R                  
OCEANSIDE AP   LGT RAIN  52  50  93 NW14G22   30.07R                  
OCEANSIDE HBR    N/A     53  49  87 NW13      30.13R                  
VISTA            N/A     53  50  89 SW3       30.05R                  
CARLSBAD       LGT RAIN  51  49  92 NW9G20    30.06R                  
LA JOLLA SCRIP   N/A     55  46  71 CALM      30.07R                  
FALLBROOK      HVY RAIN  50  50 100 W14       30.06R                  
ESCONDIDO        N/A     59  51  74 SW6       30.05R                  
SAN MARCOS       N/A     56  51  82 W3        30.04R                  
RANCHO BERNARD   N/A     58  51  77 CALM      30.05R                  
POWAY            N/A     58  51  77 SW9       30.09R                  

$$

EAST SAN DIEGO COUNTY
  
CITY           SKY/WX    TMP DP  RH WIND       PRES   REMARKS
RAMONA         CLOUDY    54  47  77 SW7       30.06R                  
SANTEE           N/A     59  52  78 CALM      30.03R                  
LA MESA          N/A     58  52  80 CALM      30.00R                  
EL CAJON         N/A     58  51  76 N6        29.95R                  
ALPINE           N/A     54  47  77 CALM      30.25R                  
DESCANSO N       N/A     45  43  91 SW9       30.10R                  

$$

ORANGE COUNTY AND THE LOS ANGELES BASIN
  
CITY           SKY/WX    TMP DP  RH WIND       PRES   REMARKS
JOHN WAYNE AP  LGT RAIN  52  45  77 NE8       30.07S                  
LAGUNA BEACH     N/A     51  49  93 CALM      30.07R                  
LAKE FOREST FR   N/A     46  43  88 CALM      29.96R                  
SANTA ANA        N/A     51  47  86 CALM      30.07R                  
HUNTINGTON BCH   N/A     51  48  89 CALM      30.06R                  
LOS ALAMITOS   LGT RAIN  52  48  87 E7        30.03R                  
FULLERTON      LGT RAIN  51  48  89 E5        30.06R                  
LONG BEACH     CLOUDY    53  47  79 E6        30.06                   
L.A. AP        MOCLDY    51  43  74 S3        30.06R                  
L.A. DOWNTOWN  CLOUDY    51  47  86 CALM      30.06R                  

$$

THE INLAND EMPIRE
  
CITY           SKY/WX    TMP DP  RH WIND       PRES   REMARKS
CORONA         LGT RAIN  48  47  96 W6        30.10R                  
UPLAND AP      LGT RAIN  48  48 100 W8        30.04R                  
CHINO          LGT RAIN  47  31  53 SW8       30.08R                  
ONTARIO        LGT RAIN  48  44  86 W7        30.06R FOG              
SAN BERNARDINO LGT RAIN  48  43  81 W17       30.08R                  
RIVERSIDE AP   CLOUDY    47  45  93 W14       30.08R                  
MORENO VALLEY    N/A     49  48  99 W3        28.29R                  
MARCH ARB      LGT RAIN  47  45  93 W10G18    30.05R                  
HORSETHIEF CYN   N/A     48  45  89 W3        30.03R                  
PERRIS           N/A     50  47  88 NW5       30.09R                  
LAKE ELSINORE    N/A     50  46  85 CALM      29.98R                  
HEMET AP       CLOUDY    52  49  91 S12       30.05R                  
FRENCH VALLEY  CLOUDY    52  52 100 S10       30.05R                  
TEMECULA         N/A     54  52  94 SW5       30.03R                  

$$

SAN BERNARDINO AND RIVERSIDE COUNTY MOUNTAINS
  
CITY           SKY/WX    TMP DP  RH WIND       PRES   REMARKS
BIG BEAR AP    LGT RAIN  34  32  93 SW8G20    29.98R WCI  27          
BIG BEAR LAKE    N/A     35  33  92 SE13      29.90R WCI  26          
WRIGHTWOOD       N/A     35  33  90 CALM      29.78R                  
ANGELUS OAKS     N/A     37  34  90 W1        29.93R                  
IDYLLWILD        N/A     40  38  92 CALM      29.95R                  

$$

SOUTHERN DESERT INCLUDING THE COACHELLA VALLEY
  
CITY           SKY/WX    TMP DP  RH WIND       PRES   REMARKS
PALM SPRINGS   CLEAR     67  41  38 MISG      29.93R                  
THOUSAND PALMS   N/A     62  46  55 N12       29.88R                  
INDIO            N/A     68  45  43 CALM      29.91R                  
THERMAL        CLEAR     68  43  40 N13G20    29.89R                  
BORREGO AP     PTCLDY    63  41  45 SW35G44   29.97R                  
OCOTILLO WELLS   N/A     66  43  42 W3        29.91R                  
CANEBRAKE        N/A     62  42  48 S6        29.94R                  
BLYTHE           N/A    N/A N/A N/A MISG      29.90R                  
IMPERIAL AP    CLEAR     66  44  45 W23G38    29.92R                  
EL CENTRO NAS  LGT RAIN  68  44  42 W28G47    29.95R                  
YUMA AZ        CLEAR     69  40  34 SW3       29.93R                  

$$

UPPER DESERT
  
CITY           SKY/WX    TMP DP  RH WIND       PRES   REMARKS
VICTORVILLE AP LGT RAIN  43  41  93 W10G21    30.04R FOG              
HESPERIA         N/A     47  43  87 SW5       29.84R                  
APPLE VALLEY     N/A     44  37  76 CALM      30.02R                  
PALMDALE       LGT RAIN  42  37  82 SW8       30.03R                  
LANCASTER      LGT RAIN  41  37  86 SW6       30.01F                  
EDWARDS AFB    LGT RAIN  44  39  84 W13       30.01R                  
GRAY BUTTE AP  LGT RAIN  40  40 100 W15       29.96R WCI  31          
DAGGETT        PTCLDY    51  40  65 W31G45    29.96R                  
29 PALMS N     CLEAR     58  39  49 SW29G39   29.99R                  
29 PALMS JTNP    N/A     61  40  46 CALM      29.84R                  
NEEDLES        CLEAR     75  31  19 SW17      29.85R                  

$$

REGIONAL REPORTS
  
CITY           SKY/WX    TMP DP  RH WIND       PRES   REMARKS
SANTA BARBARA  MOCLDY    48  47  96 N3        30.05R                  
SANDBERG       MOCLDY    34  28  79 SW8       29.99R WCI  27          
LAS VEGAS NV   CLEAR     70  24  17 S14G25    29.81R                  
PHOENIX AZ     CLEAR     80  29  15 W12       29.92R                  
TIJUANA        MOCLDY    57  52  82 SE8       30.09R                  
ENSENADA NW      N/A     61  32  34 SW12      29.88R                  

$$

OFFSHORE ISLANDS
  
CITY           SKY/WX    TMP DP  RH WIND       PRES   REMARKS
CATALINA ARPT  CLOUDY    47  40  76 W12       30.06R                  
SAN NICOLAS IS CLEAR     47  45  93 SW7       30.06R                  

$$

MARINE AND OFFSHORE BUOY REPORTS
  
STATION/POSITION SKY/WX   TEMP    WIND        PRES    VSBY  SWELL
                          AIR SEA DIR/SP/G                  HT/PER/DIR
                          (F)     (DEG/KT/KT) (MB)    (MI)  (FT/S/D)
TANNER BANKS               55 58  340/  6/  8 1018.4R         3/230/13
S CLEMENTE BASIN           55 60  300/ 12/ 16 1017.6R         3/220/15
SAN NICOLAS IS.            54 56                N/A           3/180/15
SO. S. ROSA ISLA           54 58  170/  8/ 12 1016.6R         5/300/10
W. S. BARBARA CH           52     120/ 10/ 12 1016.7R         7/290/10
M. S. BARBARA CH           52 54  170/  4/  4 1016.7R         3/270/11
S. MONICA BASIN            53 56  300/  6/  8 1018.7R         3/200/14
S PEDRO CHANNEL               58                N/A           2/160/17
OCEANSIDE OFFSHR              60                N/A           2/190/13
TORREY PINES OTR              60                N/A           2/190/15
SAN DIEGO BAY                 63              1017.9R
IMPERIAL BEACH                60                N/A           2/220/15
POINT LOMA SOUTH                                N/A           3/180/15

$$

  

SKY/WX - Weather  TMP - Temperature  DP - Dew Point  RH - Humidity
WIND - Wind Direction/Speed PRES - Barometric Pressure VSB - Visibility
WCI - Wind Chill Index E13G22 Wind - East Wind 13 mph/Gusts of 22 mph

Trending Headlines

Trending Entertainment Headlines

Vista Radar Loop

Use the map search tool if you want to place a location marker on the radar map...

Vista Quick Facts

National Two Day Weather Forecast


E-mail the Vista Weather Forecast

Voice your opinion or tell us about page issues...